Terug naar catalogus

STARLINK-34832

ActiefCommunicatieVLEO
NORAD 65475·PAYLOAD·🇺🇸 United States

Gelanceerd Sep 3, 2025 vanaf Cape Canaveral Space Force Station

Loading…

Volgende Passages (komende 24 uur)

TLE

VersSource: CelesTrak SupGP

Epoch: Sep 14, 2026, 21:22 UTC

1 65475C 25195T   26257.89076389 -.00045354  00000+0 -13404-2 0  2574
2 65475  53.1584  95.5824 0001193  82.6791 309.4805 15.34403711    14

Volg STARLINK-34832 in realtime met AllMySat

Download on the App Store